Location: Darmstadt
(49.8706°N, 8.6494°E)
Time: 06:55:34
(UTC+01:00)

ATLAS 2AS CENTAUR R/B - Pass Details

Date: 31 October 2020
Orbit: 939 x 1273 km, 63.7° (Epoch: 23 November)

Event Time Altitude Azimuth Distance (km) Brightness Sun altitude
Rises 17:43:06 0° 310° (NW) 4,202 6.4 -6.9°
Reaches altitude 10° 17:46:12 10° 318° (NW) 3,202 5.6 -7.4°
Maximum altitude 17:53:24 41° 27° (NNE) 1,654 3.4 -8.5°
Drops below altitude 10° 18:00:06 10° 96° (E) 2,981 4.4 -9.6°
Enters shadow 18:00:09 10° 96° (E) 2,996 4.4 -9.6°
